CW0003 Weather Reports


Display with metric or nautical units.
time (UTC)temp
F
wind
direction
speed
MPH
gust
MPH
rain 1hr
in
rain 24hr
in
rain mn
in
humidity
%
barometer
mb
20171218103136 20 0.0 0.0 0.00 0.00 0.00 72 1021.3
20171218101659 20 0.0 0.0 0.00 0.00 0.00 71 1020.9
20171218100127 20 0.0 0.0 0.00 0.00 0.00 71 1021.0
20171218094619 20 0.0 0.0 0.00 0.00 0.00 74 1021.2
20171218093123 19 0.0 0.0 0.00 0.00 0.00 76 1021.3
20171218090150 19 0.0 0.0 0.00 0.00 0.00 80 1021.8
20171218084616 18 0.0 0.0 0.00 0.00 0.00 81 1022.2
20171218083052 18 0.0 0.0 0.00 0.00 0.00 82 1022.6
20171218081601 18 0.0 0.0 0.00 0.00 0.00 83 1022.6
20171218080054 18 0.0 0.0 0.00 0.00 0.00 84 1022.8
20171218074528 17 0.0 0.0 0.00 0.00 0.00 84 1022.6
20171218073057 17 0.0 0.0 0.00 0.00 0.00 83 1022.5
20171218071531 17 0.0 0.0 0.00 0.00 0.00 83 1022.6
20171218070034 17 0.0 0.0 0.00 0.00 0.00 83 1022.9
20171218064634 16 0.0 0.0 0.00 0.00 0.00 83 1022.9
20171218063001 16 0.0 0.0 0.00 0.00 0.00 84 1022.8
20171218061459 16 0.0 0.0 0.00 0.00 0.00 84 1022.4
20171218055944 16 0.0 0.0 0.00 0.00 0.00 84 1022.5
20171218054441 16 0.0 0.0 0.00 0.00 0.00 84 1022.6
20171218052935 15 0.0 0.0 0.00 0.00 0.00 84 1022.8
20171218051426 15 0.0 0.0 0.00 0.00 0.00 83 1022.8
20171218045925 16 0.0 0.0 0.00 0.00 0.00 82 1023.0
20171218044433 16 0.0 0.0 0.00 0.00 0.00 81 1022.9
20171218042932 16 0.0 0.0 0.00 0.00 0.00 80 1023.0
20171218041511 17 0.0 0.0 0.00 0.00 0.00 80 1023.2
20171218040124 17 0.0 0.0 0.00 0.00 0.00 80 1023.4
20171218034728 17 0.0 0.0 0.00 0.00 0.00 80 1023.3
20171218033541 18 0.0 0.0 0.00 0.00 0.00 79 1023.4
20171218032136 18 0.0 0.0 0.00 0.00 0.00 77 1023.7
20171218025915 18 0.0 0.0 0.00 0.00 0.00 76 1023.5
20171218024401 19 0.0 0.0 0.00 0.00 0.00 76 1023.5
20171218022914 19 0.0 0.0 0.00 0.00 0.00 74 1023.8
20171218021420 19 0.0 0.0 0.00 0.00 0.00 75 1023.9
20171218015923 19 0.0 0.0 0.00 0.00 0.00 74 1023.9
20171218014347 19 0.0 0.0 0.00 0.00 0.00 74 1024.2
20171218012847 20 0.0 0.0 0.00 0.00 0.00 74 1024.4
20171218011346 20 0.0 0.0 0.00 0.00 0.00 74 1024.1
20171218005845 20 0.0 0.0 0.00 0.00 0.00 72 1024.4
20171218004337 19 0.0 0.0 0.00 0.00 0.00 72 1023.9
20171218002843 20 0.0 0.0 0.00 0.00 0.00 72 1023.8
20171218001333 20 0.0 0.0 0.00 0.00 0.00 70 1023.7
20171217235833 20 0.0 0.0 0.00 0.00 0.00 69 1023.7
20171217234408 20 0.0 0.0 0.00 0.00 0.00 67 1023.5
20171217232839 21 0.0 0.0 0.00 0.00 0.00 64 1023.5
20171217231334 21 0.0 0.0 0.00 0.00 0.00 64 1023.1
20171217225837 22 0.0 0.0 0.00 0.00 0.00 64 1023.1
20171217224323 23 0.0 0.0 0.00 0.00 0.00 61 1022.9
20171217222843 23 0.0 0.0 0.00 0.00 0.00 58 1023.0
20171217221325 24 0.0 0.0 0.00 0.00 0.00 59 1023.0
20171217215913 25 0.0 0.0 0.00 0.00 0.00 56 1022.9
20171217214322 25 0.0 0.0 0.00 0.00 0.00 49 1022.9
20171217212834 26 0.0 0.0 0.00 0.00 0.00 49 1022.9
20171217211323 27 282 0.0 0.0 0.00 0.00 0.00 43 1022.8
20171217205838 27 282 0.0 0.0 0.00 0.00 0.00 42 1022.8
20171217204318 28 277 0.0 0.0 0.00 0.00 0.00 42 1022.6
20171217202803 28 277 0.0 0.0 0.00 0.00 0.00 40 1022.6
20171217201404 28 299 0.0 0.0 0.00 0.00 0.00 38 1022.1
20171217195837 28 279 0.0 0.0 0.00 0.00 0.00 38 1021.7
20171217194336 28 324 0.0 0.0 0.00 0.00 0.00 38 1021.6
20171217192900 28 291 0.0 0.0 0.00 0.00 0.00 40 1021.6
20171217191326 28 355 0.0 0.0 0.00 0.00 0.00 41 1021.5
20171217185914 29 322 0.0 0.0 0.00 0.00 0.00 43 1021.8
20171217184323 29 288 0.0 0.0 0.00 0.00 0.00 42 1021.8
20171217182855 29 25 0.0 0.0 0.00 0.00 0.00 43 1021.9
20171217181322 28 273 0.0 0.0 0.00 0.00 0.00 42 1022.1
20171217175935 28 293 0.0 0.0 0.00 0.00 0.00 40 1022.2
20171217174332 28 299 0.0 0.0 0.00 0.00 0.00 41 1022.3
20171217172810 28 260 0.0 0.0 0.00 0.00 0.00 41 1022.6
20171217171310 27 288 0.0 0.0 0.00 0.00 0.00 42 1023.0
20171217165805 27 296 0.0 0.0 0.00 0.00 0.00 45 1023.1
20171217164259 26 300 0.0 0.0 0.00 0.00 0.00 47 1023.0
20171217162924 26 298 0.0 0.0 0.00 0.00 0.00 49 1023.1
20171217161249 25 279 0.0 0.0 0.00 0.00 0.00 48 1023.1
20171217155746 25 275 0.0 0.0 0.00 0.00 0.00 51 1023.7
20171217154241 24 285 0.0 0.0 0.00 0.00 0.00 51 1023.8
20171217152740 23 286 0.0 0.0 0.00 0.00 0.00 53 1023.9
20171217151247 22 326 0.0 0.0 0.00 0.00 0.00 56 1023.9
20171217145731 22 37 0.0 0.0 0.00 0.00 0.00 58 1024.0
20171217144223 21 301 0.0 0.0 0.00 0.00 0.00 63 1024.1
20171217142723 19 331 0.0 0.0 0.00 0.00 0.00 69 1024.2
20171217141224 16 300 0.0 0.0 0.00 0.00 0.00 84 1023.9
20171217135708 14 291 0.0 0.0 0.00 0.00 0.00 100 1023.9
20171217134247 12 290 0.0 0.0 0.00 0.00 0.00 90 1023.8
20171217132738 11 290 0.0 0.0 0.00 0.00 0.00 91 1023.9
20171217131207 9 0.0 0.0 0.00 0.00 0.00 89 1023.8
20171217125649 0 0.0 0.0 0.00 0.00 0.00 1023.5
20171217124200 0 0.0 0.0 0.00 0.00 0.00 1023.4
20171217122636 0 0.0 0.0 0.00 0.00 0.00 1023.4
20171217121151 0 0.0 0.0 0.00 0.00 0.00 1023.4
20171217115628 0 0.0 0.0 0.00 0.00 0.00 1023.3
20171217114223 0 0.0 0.0 0.00 0.00 0.00 1023.6
20171217112622 0 0.0 0.0 0.00 0.00 0.00 1023.3
20171217111107 9 0.0 0.0 0.00 0.00 0.00 88 1023.7
20171217105622 9 0.0 0.0 0.00 0.00 0.00 88 1023.6